W4SNA-4 Weather Reports


Display with metric or nautical units.
time (UTC)temp
F
wind
direction
speed
MPH
gust
MPH
rain 1hr
in
rain 24hr
in
rain mn
in
humidity
%
barometer
mb
20260506071500 63 0 0.0 0.0 0.00 0.00 0.00 75 1008.4
20260506071001 63 0 0.0 0.0 0.00 0.00 0.00 75 1007.8
20260506070503 63 0 0.0 0.0 0.00 0.00 0.00 75 1007.8
20260506062225 64 0 0.0 0.0 0.00 0.00 0.00 73 1008.6
20260506061329 64 0 0.0 0.0 0.00 0.00 0.00 72 1008.6
20260506060829 64 0 0.0 0.0 0.00 0.00 0.00 72 1008.9
20260506060329 64 0 0.0 0.0 0.00 0.00 0.00 72 1008.9
20260506051329 65 0 0.0 4.0 0.00 0.00 0.00 69 1008.8
20260506050832 65 0 0.0 4.0 0.00 0.00 0.00 69 1008.7
20260506050330 65 0 0.0 0.0 0.00 0.00 0.00 69 1008.7
20260506044504 66 0 0.0 1.0 0.00 0.00 0.00 67 1009.1
20260506044003 66 0 0.0 0.0 0.00 0.00 0.00 67 1009.1
20260506043505 66 0 0.0 0.0 0.00 0.00 0.00 67 1009.1
20260506043003 66 0 0.0 0.0 0.00 0.00 0.00 66 1009.1
20260506042502 66 0 0.0 4.0 0.00 0.00 0.00 66 1008.6
20260506042003 66 0 0.0 4.0 0.00 0.00 0.00 65 1008.6
20260506041503 66 0 0.0 2.0 0.00 0.00 0.00 65 1008.6
20260506041003 66 0 0.0 2.0 0.00 0.00 0.00 64 1008.8
20260506040503 66 0 0.0 1.0 0.00 0.00 0.00 64 1008.8
20260506040003 66 0 0.0 1.0 0.00 0.00 0.00 63 1008.8
20260506035503 66 0 0.0 2.0 0.00 0.00 0.00 62 1008.7
20260506035004 66 0 0.0 2.0 0.00 0.00 0.00 61 1008.7
20260506034503 66 0 0.0 1.0 0.00 0.00 0.00 60 1008.7
20260506034003 67 0 0.0 1.0 0.00 0.00 0.00 59 1008.6
20260506033503 67 0 0.0 1.0 0.00 0.00 0.00 59 1008.6
20260506033003 67 0 0.0 2.0 0.00 0.00 0.00 58 1008.6
20260506032503 67 0 0.0 2.0 0.00 0.00 0.00 58 1008.7
20260506032003 67 0 0.0 0.0 0.00 0.00 0.00 58 1008.7
20260506031503 67 0 0.0 0.0 0.00 0.00 0.00 57 1008.7
20260506031003 67 0 0.0 1.0 0.00 0.00 0.00 56 1008.7
20260506030504 67 0 0.0 1.0 0.00 0.00 0.00 56 1008.7
20260506030003 67 0 0.0 0.0 0.00 0.00 0.00 56 1008.7
20260506025504 67 0 0.0 0.0 0.00 0.00 0.00 55 1008.9
20260506025004 67 0 0.0 0.0 0.00 0.00 0.00 55 1008.9
20260506024503 68 0 0.0 0.0 0.00 0.00 0.00 54 1008.9
20260506024003 68 0 0.0 0.0 0.00 0.00 0.00 53 1009.2
20260506023503 68 0 0.0 0.0 0.00 0.00 0.00 52 1009.2
20260506023003 69 0 0.0 0.0 0.00 0.00 0.00 52 1009.2
20260506022503 69 0 0.0 0.0 0.00 0.00 0.00 51 1009.2
20260506022003 69 0 0.0 0.0 0.00 0.00 0.00 51 1009.2
20260506021503 69 0 0.0 0.0 0.00 0.00 0.00 51 1009.2
20260506021003 70 0 0.0 0.0 0.00 0.00 0.00 50 1009.2
20260506020346 70 0 0.0 0.0 0.00 0.00 0.00 50 1009.2
20260506015918 70 0 0.0 0.0 0.00 0.00 0.00 50 1009.2
20260506015846 70 0 0.0 0.0 0.00 0.00 0.00 50 1009.2
20260506015319 70 0 0.0 0.0 0.00 0.00 0.00 50 1009.1
20260506014820 70 0 0.0 0.0 0.00 0.00 0.00 50 1009.1
20260506014318 70 0 0.0 0.0 0.00 0.00 0.00 50 1009.1
20260506013817 70 0 0.0 0.0 0.00 0.00 0.00 50 1009.0
20260506013318 70 0 0.0 0.0 0.00 0.00 0.00 49 1009.0
20260506012827 70 0 0.0 0.0 0.00 0.00 0.00 49 1009.0
20260506012318 70 0 0.0 1.0 0.00 0.00 0.00 49 1009.1
20260506011818 70 0 0.0 1.0 0.00 0.00 0.00 49 1009.1
20260506011319 71 0 0.0 0.0 0.00 0.00 0.00 49 1009.1
20260506010818 71 0 0.0 0.0 0.00 0.00 0.00 48 1008.7
20260506010317 71 0 0.0 0.0 0.00 0.00 0.00 48 1008.7
20260506005829 71 0 0.0 0.0 0.00 0.00 0.00 48 1008.7
20260506005317 71 0 0.0 0.0 0.00 0.00 0.00 48 1008.6
20260506004818 71 0 0.0 0.0 0.00 0.00 0.00 48 1008.6
20260506004318 71 0 0.0 0.0 0.00 0.00 0.00 48 1008.6
20260506003818 72 0 0.0 0.0 0.00 0.00 0.00 48 1008.6
20260506003318 72 0 0.0 0.0 0.00 0.00 0.00 48 1008.6
20260506002828 72 0 0.0 0.0 0.00 0.00 0.00 47 1008.6
20260506002318 72 0 0.0 1.0 0.00 0.00 0.00 47 1008.5
20260506001817 72 0 0.0 1.0 0.00 0.00 0.00 46 1008.5
20260506001318 73 0 0.0 0.0 0.00 0.00 0.00 46 1008.5
20260506000817 73 0 0.0 0.0 0.00 0.00 0.00 46 1008.5
20260506000318 73 0 0.0 0.0 0.00 0.00 0.00 46 1008.5
20260505235828 73 0 0.0 0.0 0.00 0.00 0.00 45 1008.5
20260505235317 73 0 0.0 0.0 0.00 0.00 0.00 45 1008.4
20260505234509 74 0 0.0 1.0 0.00 0.00 0.00 44 1008.4
20260505234009 74 0 0.0 0.0 0.00 0.00 0.00 44 1008.4
20260505233509 74 0 0.0 0.0 0.00 0.00 0.00 44 1008.2
20260505233009 74 0 0.0 0.0 0.00 0.00 0.00 45 1008.2
20260505232510 74 0 0.0 0.0 0.00 0.00 0.00 45 1008.2
20260505232009 74 0 0.0 1.0 0.00 0.00 0.00 45 1008.1
20260505231509 74 0 0.0 1.0 0.00 0.00 0.00 46 1008.1
20260505231009 74 0 0.0 0.0 0.00 0.00 0.00 46 1008.1
20260505230509 74 0 0.0 0.0 0.00 0.00 0.00 46 1008.1
20260505230009 74 0 0.0 0.0 0.00 0.00 0.00 46 1008.1
20260505225509 75 0 0.0 0.0 0.00 0.00 0.00 45 1008.1
20260505225009 75 0 0.0 0.0 0.00 0.00 0.00 44 1008.1
20260505224509 75 0 0.0 0.0 0.00 0.00 0.00 44 1008.1
20260505224009 75 0 0.0 0.0 0.00 0.00 0.00 45 1008.1
20260505223509 75 0 0.0 0.0 0.00 0.00 0.00 43 1008.2
20260505223009 75 0 0.0 0.0 0.00 0.00 0.00 43 1008.2
20260505222509 75 0 0.0 0.0 0.00 0.00 0.00 43 1008.2
20260505221553 76 0 0.0 0.0 0.00 0.00 0.00 42 1008.5
20260505221036 76 0 0.0 3.0 0.00 0.00 0.00 41 1008.5
20260505220536 76 0 0.0 1.0 0.00 0.00 0.00 42 1008.4
20260505220036 76 0 0.0 1.0 0.00 0.00 0.00 42 1008.4
20260505215039 77 0 0.0 1.0 0.00 0.00 0.00 41 1008.6
20260505214540 77 0 0.0 2.0 0.00 0.00 0.00 42 1008.6
20260505214036 77 0 0.0 2.0 0.00 0.00 0.00 42 1008.6
20260505213536 76 0 0.0 2.0 0.00 0.00 0.00 43 1008.7
20260505213036 76 0 0.0 0.0 0.00 0.00 0.00 43 1008.7
20260505212536 76 0 0.0 1.0 0.00 0.00 0.00 41 1008.7
20260505212036 77 0 0.0 1.0 0.00 0.00 0.00 41 1008.6
20260505211536 77 0 0.0 0.0 0.00 0.00 0.00 40 1008.6
20260505211036 77 0 0.0 0.0 0.00 0.00 0.00 41 1008.6
20260505210536 77 0 0.0 2.0 0.00 0.00 0.00 40 1008.6
20260505210036 77 0 0.0 2.0 0.00 0.00 0.00 40 1008.6
20260505205536 77 0 0.0 2.0 0.00 0.00 0.00 41 1008.6
20260505205036 77 0 0.0 3.0 0.00 0.00 0.00 43 1008.7
20260505204545 77 0 0.0 3.0 0.00 0.00 0.00 40 1008.7
20260505204042 77 0 0.0 1.0 0.00 0.00 0.00 40 1008.7
20260505203538 77 0 0.0 1.0 0.00 0.00 0.00 40 1009.0
20260505203036 77 0 0.0 7.0 0.00 0.00 0.00 39 1009.0
20260505202536 77 0 0.0 7.0 0.00 0.00 0.00 40 1009.0
20260505202036 77 0 0.0 1.0 0.00 0.00 0.00 41 1009.1
20260505201536 77 0 0.0 1.0 0.00 0.00 0.00 40 1009.1
20260505201036 77 0 0.0 3.0 0.00 0.00 0.00 40 1009.1
20260505200540 77 0 0.0 3.0 0.00 0.00 0.00 40 1009.2
20260505200036 77 0 0.0 5.0 0.00 0.00 0.00 41 1009.2
20260505195536 77 0 0.0 5.0 0.00 0.00 0.00 41 1009.2
20260505195036 77 0 0.0 0.0 0.00 0.00 0.00 39 1009.3
20260505194536 77 0 0.0 0.0 0.00 0.00 0.00 41 1009.3
20260505194036 77 0 0.0 0.0 0.00 0.00 0.00 43 1009.3
20260505193542 77 0 0.0 0.0 0.00 0.00 0.00 41 1009.7
20260505193036 77 0 0.0 0.0 0.00 0.00 0.00 41 1009.7
20260505192536 77 0 0.0 0.0 0.00 0.00 0.00 41 1009.7
20260505191723 77 0 0.0 0.0 0.00 0.00 0.00 40 1009.9
20260505191221 77 0 0.0 0.0 0.00 0.00 0.00 40 1009.9
20260505190717 77 0 0.0 0.0 0.00 0.00 0.00 39 1010.0
20260505190221 77 0 0.0 0.0 0.00 0.00 0.00 40 1010.0
20260505185720 77 0 0.0 0.0 0.00 0.00 0.00 41 1010.0
20260505185220 76 0 0.0 0.0 0.00 0.00 0.00 41 1010.3
20260505184721 77 0 0.0 0.0 0.00 0.00 0.00 41 1010.3
20260505183909 76 0 0.0 1.0 0.00 0.00 0.00 41 1010.8
20260505183409 76 0 0.0 1.0 0.00 0.00 0.00 40 1010.8
20260505182909 76 0 0.0 1.0 0.00 0.00 0.00 39 1010.8
20260505182408 76 0 0.0 1.0 0.00 0.00 0.00 42 1010.8
20260505181909 76 0 0.0 0.0 0.00 0.00 0.00 41 1010.8
20260505181409 77 0 0.0 1.0 0.00 0.00 0.00 40 1010.8
20260505180909 77 0 0.0 1.0 0.00 0.00 0.00 39 1010.9
20260505180409 77 0 0.0 0.0 0.00 0.00 0.00 38 1010.9
20260505175909 77 0 0.0 0.0 0.00 0.00 0.00 40 1010.9
20260505175409 77 0 0.0 0.0 0.00 0.00 0.00 41 1010.8
20260505174909 77 0 0.0 0.0 0.00 0.00 0.00 42 1010.8
20260505174411 76 0 0.0 0.0 0.00 0.00 0.00 44 1010.8
20260505173909 76 0 0.0 0.0 0.00 0.00 0.00 41 1010.8
20260505173408 76 0 0.0 0.0 0.00 0.00 0.00 41 1010.8
20260505172909 76 0 0.0 0.0 0.00 0.00 0.00 45 1010.8
20260505172409 76 0 0.0 0.0 0.00 0.00 0.00 42 1010.8
20260505171909 76 0 0.0 0.0 0.00 0.00 0.00 41 1010.8
20260505171128 76 0 0.0 1.0 0.00 0.00 0.00 43 1010.8
20260505170631 76 0 0.0 0.0 0.00 0.00 0.00 43 1011.3
20260505170129 76 0 0.0 0.0 0.00 0.00 0.00 42 1011.3
20260505165628 76 0 0.0 0.0 0.00 0.00 0.00 41 1011.3
20260505165129 75 0 0.0 0.0 0.00 0.00 0.00 45 1011.3
20260505164631 75 0 0.0 1.0 0.00 0.00 0.00 44 1011.3
20260505164128 75 0 0.0 1.0 0.00 0.00 0.00 42 1011.3
20260505163629 75 0 0.0 1.0 0.00 0.00 0.00 42 1011.3
20260505163128 75 0 0.0 2.0 0.00 0.00 0.00 47 1011.3
20260505162631 75 0 0.0 2.0 0.00 0.00 0.00 46 1011.3
20260505162128 75 0 0.0 1.0 0.00 0.00 0.00 48 1011.4
20260505161628 75 0 0.0 0.0 0.00 0.00 0.00 45 1011.4
20260505161129 75 0 0.0 0.0 0.00 0.00 0.00 51 1011.4
20260505160628 75 0 0.0 1.0 0.00 0.00 0.00 49 1011.6
20260505160128 75 0 0.0 1.0 0.00 0.00 0.00 48 1011.6
20260505153129 73 0 0.0 0.0 0.00 0.00 0.00 53 1011.6
20260505152628 73 0 0.0 0.0 0.00 0.00 0.00 55 1011.6
20260505152128 73 0 0.0 1.0 0.00 0.00 0.00 55 1011.7
20260505151629 72 0 0.0 1.0 0.00 0.00 0.00 56 1011.7
20260505151128 72 0 0.0 0.0 0.00 0.00 0.00 55 1011.7
20260505150630 71 0 0.0 0.0 0.00 0.00 0.00 57 1011.6
20260505150129 71 0 0.0 0.0 0.00 0.00 0.00 56 1011.6
20260505140628 67 0 0.0 0.0 0.00 0.00 0.00 64 1011.4
20260505140128 67 0 0.0 0.0 0.00 0.00 0.00 66 1011.4
20260505130133 61 0 0.0 0.0 0.00 0.00 0.00 76 1011.1
20260505124631 60 0 0.0 0.0 0.00 0.00 0.00 80 1011.3
20260505124145 59 0 0.0 0.0 0.00 0.00 0.00 81 1011.3
20260505123630 58 0 0.0 0.0 0.00 0.00 0.00 81 1011.2
20260505123144 58 0 0.0 0.0 0.00 0.00 0.00 82 1011.2
20260505122628 58 0 0.0 0.0 0.00 0.00 0.00 82 1011.2
20260505122129 57 0 0.0 0.0 0.00 0.00 0.00 82 1011.0
20260505121634 57 0 0.0 0.0 0.00 0.00 0.00 82 1011.0
20260505121037 57 0 0.0 0.0 0.00 0.00 0.00 82 1011.0
20260505120605 57 0 0.0 0.0 0.00 0.00 0.00 82 1010.9
20260505120038 56 0 0.0 0.0 0.00 0.00 0.00 81 1010.9
20260505115557 56 0 0.0 0.0 0.00 0.00 0.00 81 1010.9
20260505114655 56 0 0.0 0.0 0.00 0.00 0.00 81 1011.0
20260505114158 56 0 0.0 0.0 0.00 0.00 0.00 81 1011.0
20260505113657 56 0 0.0 0.0 0.00 0.00 0.00 81 1010.9
20260505113200 56 0 0.0 0.0 0.00 0.00 0.00 81 1010.9
20260505112658 56 0 0.0 0.0 0.00 0.00 0.00 81 1010.9
20260505112158 56 0 0.0 0.0 0.00 0.00 0.00 80 1010.6
20260505111657 56 0 0.0 0.0 0.00 0.00 0.00 80 1010.6
20260505111205 56 0 0.0 0.0 0.00 0.00 0.00 80 1010.6
20260505110656 56 0 0.0 0.0 0.00 0.00 0.00 79 1010.7
20260505110155 56 0 0.0 0.0 0.00 0.00 0.00 79 1010.7
20260505102204 57 0 0.0 0.0 0.00 0.00 0.00 77 1010.5
20260505101655 57 0 0.0 0.0 0.00 0.00 0.00 76 1010.5
20260505101158 57 0 0.0 0.0 0.00 0.00 0.00 76 1010.5
20260505100655 57 0 0.0 0.0 0.00 0.00 0.00 75 1010.4
20260505100159 57 0 0.0 0.0 0.00 0.00 0.00 75 1010.4
20260505095655 57 0 0.0 0.0 0.00 0.00 0.00 75 1010.4
20260505095158 57 0 0.0 0.0 0.00 0.00 0.00 75 1010.4
20260505094655 57 0 0.0 0.0 0.00 0.00 0.00 74 1010.4
20260505094158 57 0 0.0 0.0 0.00 0.00 0.00 74 1010.4
20260505093655 57 0 0.0 0.0 0.00 0.00 0.00 74 1010.4
20260505093158 57 0 0.0 0.0 0.00 0.00 0.00 74 1010.4
20260505092655 57 0 0.0 0.0 0.00 0.00 0.00 74 1010.4
20260505092157 57 0 0.0 0.0 0.00 0.00 0.00 73 1010.4
20260505091655 57 0 0.0 0.0 0.00 0.00 0.00 73 1010.4
20260505091155 57 0 0.0 0.0 0.00 0.00 0.00 73 1010.4
20260505090655 57 0 0.0 0.0 0.00 0.00 0.00 73 1010.1
20260505090156 57 0 0.0 0.0 0.00 0.00 0.00 73 1010.1
20260505085654 57 0 0.0 0.0 0.00 0.00 0.00 72 1010.1
20260505085156 57 0 0.0 0.0 0.00 0.00 0.00 72 1010.0
20260505084655 57 0 0.0 0.0 0.00 0.00 0.00 72 1010.0
20260505084158 57 0 0.0 0.0 0.00 0.00 0.00 72 1010.0
20260505083655 57 0 0.0 0.0 0.00 0.00 0.00 71 1009.9
20260505083158 57 0 0.0 0.0 0.00 0.00 0.00 71 1009.9
20260505082655 57 0 0.0 0.0 0.00 0.00 0.00 71 1009.9
20260505082155 58 0 0.0 0.0 0.00 0.00 0.00 70 1009.8
20260505081655 58 0 0.0 0.0 0.00 0.00 0.00 70 1009.8
20260505081158 58 0 0.0 0.0 0.00 0.00 0.00 69 1009.8
20260505080655 58 0 0.0 0.0 0.00 0.00 0.00 69 1009.7
20260505080158 58 0 0.0 0.0 0.00 0.00 0.00 68 1009.7
20260505075700 58 0 0.0 0.0 0.00 0.00 0.00 68 1009.7
20260505075158 58 0 0.0 0.0 0.00 0.00 0.00 67 1009.5
20260505074655 59 0 0.0 0.0 0.00 0.00 0.00 67 1009.5
20260505074158 59 0 0.0 0.0 0.00 0.00 0.00 66 1009.5
20260505073655 59 0 0.0 0.0 0.00 0.00 0.00 66 1009.6
20260505073158 59 0 0.0 0.0 0.00 0.00 0.00 65 1009.6
20260505072655 59 0 0.0 0.0 0.00 0.00 0.00 64 1009.6
20260505072155 59 0 0.0 0.0 0.00 0.00 0.00 64 1009.5
20260505071654 59 0 0.0 0.0 0.00 0.00 0.00 63 1009.5